KE7YUP Weather Reports


time (UTC)temp
F
wind
direction
speed
knots
gust
knots
rain 1hr
in
rain 24hr
in
rain mn
in
humidity
%
barometer
mb
20260503230835 73 111 3.5 7.8 0.00 0.00 0.00 15 1013.3
20260503225817 73 72 2.6 5.2 0.00 0.00 0.00 15 1013.4
20260503224817 73 126 4.3 7.8 0.00 0.00 0.00 15 1013.4
20260503223817 73 94 6.1 10.4 0.00 0.00 0.00 15 1013.6
20260503222817 72 94 6.1 9.6 0.00 0.00 0.00 15 1013.7
20260503221817 72 93 3.5 7.0 0.00 0.00 0.00 16 1013.9
20260503220817 72 110 4.3 7.8 0.00 0.00 0.00 15 1014.0
20260503215817 72 95 6.1 10.4 0.00 0.00 0.00 13 1014.6
20260503214817 72 103 4.3 9.6 0.00 0.00 0.00 15 1014.8
20260503213816 71 79 7.0 9.6 0.00 0.00 0.00 14 1015.0
20260503212917 72 86 5.2 9.6 0.00 0.00 0.00 16 1015.3
20260503211817 71 111 7.0 10.4 0.00 0.00 0.00 16 1015.5
20260503210817 71 88 7.0 9.6 0.00 0.00 0.00 18 1015.8
20260503205817 71 100 7.0 9.6 0.00 0.00 0.00 17 1016.4
20260503204817 71 115 4.3 8.7 0.00 0.00 0.00 18 1016.6
20260503203817 70 97 4.3 9.6 0.00 0.00 0.00 17 1016.5
20260503202817 70 151 6.1 9.6 0.00 0.00 0.00 20 1016.6
20260503201817 70 113 5.2 8.7 0.00 0.00 0.00 21 1016.9
20260503200816 70 154 5.2 7.8 0.00 0.00 0.00 21 1017.1
20260503195837 70 96 7.0 10.4 0.00 0.00 0.00 21 1017.2
20260503194817 70 109 4.3 8.7 0.00 0.00 0.00 21 1017.4
20260503193816 69 135 5.2 7.8 0.00 0.00 0.00 21 1017.0
20260503192817 70 114 5.2 7.0 0.00 0.00 0.00 22 1017.5
20260503191816 69 142 5.2 7.8 0.00 0.00 0.00 22 1017.6
20260503190816 70 90 3.5 7.0 0.00 0.00 0.00 23 1017.8
20260503185816 69 89 6.1 8.7 0.00 0.00 0.00 24 1018.0
20260503184816 68 110 1.7 7.8 0.00 0.00 0.00 24 1017.8
20260503183817 68 61 3.5 7.0 0.00 0.00 0.00 24 1017.9
20260503182816 68 73 3.5 6.1 0.00 0.00 0.00 26 1018.7
20260503181816 67 123 3.5 6.1 0.00 0.00 0.00 27 1018.6
20260503180816 67 168 1.7 5.2 0.00 0.00 0.00 26 1018.7
20260503175816 67 95 3.5 6.1 0.00 0.00 0.00 25 1019.7
20260503174817 68 134 4.3 6.1 0.00 0.00 0.00 26 1019.8
20260503173816 68 134 1.7 3.5 0.00 0.00 0.00 24 1019.8
20260503172816 68 106 5.2 8.7 0.00 0.00 0.00 24 1020.2
20260503171816 68 89 2.6 3.5 0.00 0.00 0.00 25 1020.4
20260503170816 66 183 1.7 6.1 0.00 0.00 0.00 25 1020.4
20260503150816 57 83 2.6 4.3 0.00 0.00 0.00 43 1019.7
20260503130816 52 295 2.6 7.0 0.00 0.00 0.00 39 1018.9
20260503110816 51 336 1.7 5.2 0.00 0.00 0.00 45 1019.5
20260503080815 54 331 3.5 7.0 0.00 0.00 0.00 34 1020.1
20260503072817 55 338 1.7 2.6 0.00 0.00 0.00 34 1020.2
20260503071815 55 338 0.9 1.7 0.00 0.00 0.00 33 1020.2
20260503070817 55 338 2.6 3.5 0.00 0.00 0.00 34 1020.2
20260503054857 63 119 1.7 6.1 0.00 0.00 0.00 27 1020.3
20260503053816 63 336 9.6 13.9 0.00 0.00 0.00 23 1020.1
20260503052816 63 332 8.7 12.2 0.00 0.00 0.00 23 1020.0
20260503051816 64 337 7.0 11.3 0.00 0.00 0.00 22 1020.1
20260503050816 64 332 9.6 13.0 0.00 0.00 0.00 23 1020.1
20260503045816 64 328 6.1 9.6 0.00 0.00 0.00 23 1019.6
20260503044816 64 354 5.2 11.3 0.00 0.00 0.00 23 1019.6
20260503043836 64 1 6.1 15.6 0.00 0.00 0.00 23 1019.6
20260503042836 63 335 9.6 13.0 0.00 0.00 0.00 24 1019.1
20260503041816 64 335 8.7 13.0 0.00 0.00 0.00 23 1019.3
20260503040816 64 276 5.2 15.6 0.00 0.00 0.00 23 1019.2
20260503035816 63 353 5.2 10.4 0.00 0.00 0.00 23 1019.1
20260503034816 64 42 8.7 11.3 0.00 0.00 0.00 23 1019.0
20260503033816 63 329 5.2 8.7 0.00 0.00 0.00 24 1018.9
20260503032816 63 271 6.1 9.6 0.00 0.00 0.00 24 1018.6
20260503031836 64 10 0.9 3.5 0.00 0.00 0.00 24 1018.8
20260503030815 64 8 5.2 9.6 0.00 0.00 0.00 24 1018.7
20260503025815 64 3 6.1 9.6 0.00 0.00 0.00 24 1018.3
20260503024815 64 305 2.6 4.3 0.00 0.00 0.00 24 1018.4
20260503023816 64 338 3.5 5.2 0.00 0.00 0.00 24 1018.4
20260503022815 65 354 3.5 7.8 0.00 0.00 0.00 24 1018.4
20260503021815 65 359 6.1 9.6 0.00 0.00 0.00 23 1018.5
20260503020815 66 327 3.5 4.3 0.00 0.00 0.00 23 1018.7
20260503015815 66 348 6.1 12.2 0.00 0.00 0.00 23 1018.0
20260503014836 67 26 3.5 8.7 0.00 0.00 0.00 21 1018.1
20260503013816 68 65 1.7 2.6 0.00 0.00 0.00 17 1018.3
20260503012836 68 120 1.7 4.3 0.00 0.00 0.00 15 1017.6
20260503011815 69 152 2.6 4.3 0.00 0.00 0.00 16 1017.9
20260503010835 69 133 2.6 6.1 0.00 0.00 0.00 15 1017.9
20260503005835 69 103 4.3 7.0 0.00 0.00 0.00 15 1017.7
20260503004815 70 112 3.5 6.1 0.00 0.00 0.00 16 1018.0
20260503003815 70 110 6.1 8.7 0.00 0.00 0.00 15 1018.1
20260503002815 70 127 4.3 9.6 0.00 0.00 0.00 16 1018.1
20260503001815 70 128 3.5 6.1 0.00 0.00 0.00 16 1018.2
20260503000835 70 95 5.2 7.8 0.00 0.00 0.00 16 1018.2
20260502235815 70 140 5.2 8.7 0.00 0.00 0.00 16 1018.3
20260502234815 70 154 6.1 8.7 0.00 0.00 0.00 16 1018.5
20260502233815 70 137 7.8 12.2 0.00 0.00 0.00 16 1018.5
20260502232815 70 142 6.1 12.2 0.00 0.00 0.00 17 1018.5
20260502231815 70 143 5.2 13.9 0.00 0.00 0.00 16 1018.7